This is the latest recevied weather packets stored in our database for station/object IZ1UQG-N2. If no packets are shown the sender has not sent any weather packets the latest 1 day(s).
| Time | Temp. | Humidity | Pressure | Rain* | Wind** | Luminosity | Snow |
|---|---|---|---|---|---|---|---|
| 1778045691 | 11.67° C | 93% | 1006.7 hPa | 3.05 mm | - | 18 W/m² | - |
| 1778045570 | 11.67° C | 93% | 1006.8 hPa | 3.05 mm | - | 14 W/m² | - |
| 1778045510 | 11.67° C | 93% | 1006.8 hPa | 3.05 mm | - | 14 W/m² | - |
| 1778045408 | 11.67° C | 93% | 1006.8 hPa | 2.79 mm | - | 12 W/m² | - |
| 1778045390 | 11.67° C | 93% | 1006.8 hPa | 2.79 mm | - | 12 W/m² | - |
| 1778045209 | 11.67° C | 93% | 1006.8 hPa | 2.79 mm | - | 11 W/m² | - |
| 1778045049 | 11.67° C | 93% | 1006.7 hPa | 2.29 mm | - | 11 W/m² | - |
| 1778045030 | 11.67° C | 93% | 1006.8 hPa | 2.29 mm | - | 9 W/m² | - |
| 1778044970 | 11.67° C | 93% | 1006.7 hPa | 2.29 mm | - | 9 W/m² | - |
| 1778044910 | 11.67° C | 93% | 1006.8 hPa | 2.03 mm | - | 7 W/m² | - |
| 1778044730 | 11.67° C | 93% | 1006.9 hPa | 1.78 mm | - | 0 W/m² | - |
| 1778044688 | 11.67° C | 93% | 1006.9 hPa | 1.78 mm | - | 0 W/m² | - |
| 1778044670 | 11.67° C | 93% | 1006.9 hPa | 1.78 mm | - | 0 W/m² | - |
| 1778044509 | 11.67° C | 93% | 1006.9 hPa | 1.52 mm | - | 5 W/m² | - |
| 1778044491 | 11.67° C | 93% | 1007 hPa | 1.27 mm | - | 0 W/m² | - |
| 1778044431 | 11.67° C | 93% | 1006.9 hPa | 1.02 mm | - | 0 W/m² | - |
| 1778044370 | 11.67° C | 93% | 1006.9 hPa | 0.76 mm | - | 0 W/m² | - |
| 1778044328 | 11.67° C | 93% | 1006.9 hPa | 0.76 mm | - | 0 W/m² | - |
| 1778044310 | 11.67° C | 93% | 1007 hPa | 0.76 mm | - | 0 W/m² | - |
| 1778044250 | 11.67° C | 93% | 1007.1 hPa | 0.76 mm | - | 0 W/m² | - |
| 1778044190 | 11.67° C | 93% | 1007 hPa | 0.51 mm | - | 0 W/m² | - |
| 1778044149 | 11.67° C | 93% | 1007 hPa | 0.51 mm | - | 0 W/m² | - |
| 1778044131 | 11.67° C | 93% | 1007 hPa | 0.51 mm | - | 0 W/m² | - |
| 1778044071 | 11.67° C | 93% | 1007 hPa | 0.51 mm | - | 0 W/m² | - |
| 1778044010 | 11.67° C | 93% | 1007 hPa | 0.51 mm | - | 0 W/m² | - |
* Rain latest hour (hover to see other rain measurements)
** Current wind speed in m/s (hover to see current wind gust speed)